Tracking 25734 objects as of 28-May-2022
HD Live streaming from Space Station
objects crossing your sky now

ONEWEB-0414

Track ONEWEB-0414 now!
10-day predictions
ONEWEB-0414 is classified as:


NORAD ID: 50491
Int'l Code: 2021-132Y
Perigee: 593.4 km
Apogee: 601.3 km
Inclination: 87.2 °
Period: 96.5 minutes
Semi major axis: 6968 km
RCS: Unknown
Launch date: December 27, 2021
Source: United Kingdom (UK)
Launch site: TYURATAM MISSILE AND SPACE COMPLEX (TTMTR)
aabbcc
Your satellite tracking list
Your tracking list is empty




NASA's NSSDC Master Catalog

Two Line Element Set (TLE):
1 50491U 21132Y   22148.25002315  .00050747  00000-0  49157-2 0  9994
2 50491  87.2192 302.5452 0005660  72.0240  55.3053 14.92473703 24033
Source of the keplerian elements: AFSPC